"Time","Temp","Dewpoint","Humidity","Pressure","Direction","Speed","Gust","Precip","PrecipRate"
"00:04:56","43.8","28.3","54.3","30.12","293","3.7","10.4","0.00","0.00"
"00:09:57","43.6","28","54","30.12","294","5.4","18","0.00","0.00"
"00:14:59","43.6","27.2","52.2","30.12","304","5.8","19.6","0.00","0.00"
"00:19:57","43.6","27.1","51.9","30.12","307","6.4","20","0.00","0.00"
"00:24:59","43.8","27.1","51.6","30.12","309","7.9","19.6","0.00","0.00"
"00:29:57","43.8","27.3","52","30.12","313","7.7","18.4","0.00","0.00"
"00:34:59","43.8","27.5","52.6","30.11","292","6","12.7","0.00","0.00"
"00:39:57","43.7","27.7","53.2","30.11","297","6.7","18.4","0.00","0.00"
"00:44:59","43.6","27.7","53.3","30.12","308","6.9","17","0.00","0.00"
"00:49:57","43.6","27.8","53.6","30.12","291","6.7","19.6","0.00","0.00"
"00:54:59","43.5","27.9","54","30.12","304","5.3","16.1","0.00","0.00"
"00:59:57","43.4","27.8","53.8","30.13","309","4.5","12","0.00","0.00"
"01:04:58","43.4","27.6","53.6","30.13","292","5.5","19.6","0.00","0.00"
"01:09:56","43.3","27.2","52.9","30.13","317","4.8","19.6","0.00","0.00"
"01:14:59","43.2","27.3","53.2","30.13","305","4.7","11.5","0.00","0.00"
"01:19:57","43.1","27","52.9","30.13","307","5.2","12","0.00","0.00"
"01:24:58","43","26.4","51.7","30.13","329","7.8","21","0.00","0.00"
"01:29:57","42.9","26.4","51.7","30.13","279","5.3","14","0.00","0.00"
"01:34:59","42.8","26.4","52","30.13","293","3.9","13","0.00","0.00"
"01:39:57","42.7","26.3","52.2","30.13","299","4.1","12.7","0.00","0.00"
"01:44:59","42.6","25.9","51.3","30.13","312","8.8","18.4","0.00","0.00"
"01:49:57","42.7","25.8","51","30.13","286","6.5","16.1","0.00","0.00"
"01:54:59","42.6","25.9","51.4","30.13","299","4.8","13","0.00","0.00"
"01:59:57","42.5","25.9","51.5","30.14","298","5.1","12","0.00","0.00"
"02:04:50","42.5","25.7","51.2","30.14","285","4.3","13","0.00","0.00"
"02:09:56","42.4","25.6","51.2","30.14","305","5.3","13","0.00","0.00"
"02:14:59","42.4","25.9","51.9","30.15","285","4.5","12","0.00","0.00"
"02:19:57","42.3","26","52.2","30.15","292","4.2","11.5","0.00","0.00"
"02:24:59","42.3","26","52.4","30.15","299","4.7","13","0.00","0.00"
"02:29:56","42.1","26.2","53","30.15","311","5.2","12.7","0.00","0.00"
"02:34:59","42","26.1","53","30.14","279","3.1","11.5","0.00","0.00"
"02:39:57","41.9","26.4","54","30.14","280","2.7","6","0.00","0.00"
"02:44:59","41.8","26.1","53.3","30.14","287","4.1","13","0.00","0.00"
"02:49:58","41.8","26","53.2","30.14","319","4.1","12.7","0.00","0.00"
"02:54:56","41.7","25.9","53.3","30.14","304","3.6","11.5","0.00","0.00"
"02:59:58","41.6","26","53.7","30.15","233","3.1","5.8","0.00","0.00"
"03:04:56","41.5","26.3","54.5","30.15","209","2","4.6","0.00","0.00"
"03:09:58","41.3","26","54.2","30.15","300","3.7","9.2","0.00","0.00"
"03:14:56","41.3","25.9","54","30.15","299","3.6","7","0.00","0.00"
"03:19:58","41.2","25.8","54","30.14","270","2.5","5","0.00","0.00"
"03:24:57","41.1","25.5","53.5","30.14","277","2.2","6","0.00","0.00"
"03:29:59","41","25.6","54.2","30.14","283","2.6","8.1","0.00","0.00"
"03:34:57","40.8","25.6","54.4","30.14","321","3.3","6","0.00","0.00"
"03:39:59","40.7","25.6","54.6","30.14","339","1.4","6","0.00","0.00"
"03:44:57","40.5","25.6","55","30.15","319","2.5","7","0.00","0.00"
"03:49:59","40.2","25.6","55.6","30.15","334","2.6","7","0.00","0.00"
"03:54:57","40","25.7","56.1","30.15","291","2.7","7","0.00","0.00"
"03:59:59","39.9","25.6","56.4","30.15","323","3","5","0.00","0.00"
"04:04:56","39.8","25.5","56.4","30.14","312","2.8","5","0.00","0.00"
"04:09:58","39.7","25.7","57","30.14","278","1.4","4","0.00","0.00"
"04:14:57","39.5","25.6","57.3","30.14","325","2.1","5","0.00","0.00"
"04:19:56","39.3","25.7","58","30.14","333","2.7","7","0.00","0.00"
"04:24:59","39.1","25.6","58.2","30.14","319","1.5","4","0.00","0.00"
"04:29:57","38.9","25.4","58.1","30.14","324","3.8","6","0.00","0.00"
"04:34:59","38.9","25.7","58.7","30.14","320","5.5","11.5","0.00","0.00"
"04:39:57","39","25.5","58","30.14","283","3.4","9.2","0.00","0.00"
"04:44:59","39","25.5","58","30.14","275","3","10","0.00","0.00"
"04:49:57","39","25.5","58","30.14","321","3.9","10.4","0.00","0.00"
"04:54:59","38.9","25.6","58.3","30.14","335","3.1","5.8","0.00","0.00"
"04:59:57","38.8","25.7","58.9","30.15","318","2.7","6","0.00","0.00"
"05:04:58","38.5","25.5","59.2","30.15","330","2.7","6","0.00","0.00"
"05:09:56","38.3","25.6","60.2","30.15","269","1.7","3.5","0.00","0.00"
"05:14:58","37.9","25.5","60.5","30.15","291","1.9","5","0.00","0.00"
"05:19:57","37.8","25.5","61","30.15","332","1.1","7","0.00","0.00"
"05:24:59","37.8","25.4","60.8","30.15","309","1.7","6.9","0.00","0.00"
"05:29:57","37.7","25.5","61","30.16","337","1.1","3.5","0.00","0.00"
"05:34:59","37.5","25.3","61","30.16","331","0.8","3.5","0.00","0.00"
"05:39:57","37.3","25.2","61.2","30.16","331","0.6","2.3","0.00","0.00"
"05:44:56","37.1","25.3","62","30.16","332","0.9","2.3","0.00","0.00"
"05:49:58","36.8","25.4","63","30.16","330","1.1","3.5","0.00","0.00"
"05:54:56","36.6","25.2","63","30.16","289","0.5","3","0.00","0.00"
"05:59:58","36.4","25.2","63.6","30.16","279","0.5","2.3","0.00","0.00"
"06:04:52","36.1","25.2","64.2","30.16","279","0.9","3","0.00","0.00"
"06:09:59","35.9","25.2","64.8","30.16","279","0.2","1.2","0.00","0.00"
"06:14:58","35.8","25.2","65.1","30.17","279","1.6","3.5","0.00","0.00"
"06:19:56","35.7","25.1","65.1","30.17","281","0.9","3.5","0.00","0.00"
"06:24:58","35.7","25.1","65","30.17","279","0.8","3","0.00","0.00"
"06:29:57","35.7","25.2","65.5","30.18","279","0.9","3.5","0.00","0.00"
"06:34:59","35.7","25.1","65","30.18","279","0.3","2","0.00","0.00"
"06:39:58","35.6","25.4","66","30.18","285","2","4","0.00","0.00"
"06:44:56","35.7","25.3","65.8","30.18","315","1.8","4","0.00","0.00"
"06:49:58","35.7","25.2","65.2","30.18","344","0.3","1.2","0.00","0.00"
"06:54:57","35.6","25.4","66","30.18","344","0.7","3.5","0.00","0.00"
"06:59:59","35.4","25.2","66","30.19","344","0.3","2.3","0.00","0.00"
"07:04:56","35.3","25.1","66.1","30.19","344","0.1","1.2","0.00","0.00"
"07:09:59","35","25.1","67","30.19","344","0","0","0.00","0.00"
"07:14:57","34.7","25","67.1","30.19","344","0.2","1.2","0.00","0.00"
"07:19:56","34.8","25.3","68.1","30.19","344","0","0","0.00","0.00"
"07:24:59","34.8","25.7","69","30.19","344","0.3","1.2","0.00","0.00"
"07:29:56","34.8","25.8","69.2","30.20","344","0.2","1.2","0.00","0.00"
"07:34:58","35","26","69.4","30.20","344","0.5","2","0.00","0.00"
"07:39:57","34.9","26.3","70.5","30.20","344","1.5","3.5","0.00","0.00"
"07:44:58","35.3","26.5","70.1","30.21","344","0.2","2.3","0.00","0.00"
"07:49:56","35.7","26.8","69.7","30.21","335","1.4","3.5","0.00","0.00"
"07:54:58","36.2","26.7","68.4","30.21","292","1.7","3.5","0.00","0.00"
"07:59:56","36.7","26.7","66.8","30.21","279","0.7","2.3","0.00","0.00"
"08:04:57","37.3","27","65.8","30.21","308","1.8","4","0.00","0.00"
"08:09:59","38","27.4","65.3","30.21","332","0.9","4","0.00","0.00"
"08:14:58","38.7","27.4","63.5","30.21","331","1.3","5","0.00","0.00"
"08:19:59","39.3","27.3","61.9","30.21","335","2","5","0.00","0.00"
"08:24:57","39.7","27.6","61.7","30.21","295","1.8","4","0.00","0.00"
"08:29:59","40","27.9","62","30.21","262","1.6","4","0.00","0.00"
"08:34:57","40.3","27.9","61.1","30.21","307","1.9","7","0.00","0.00"
"08:39:59","40.5","27.8","60.1","30.21","307","3.2","9","0.00","0.00"
"08:44:56","40.7","27.8","59.7","30.21","333","1.7","9.2","0.00","0.00"
"08:49:58","41.1","27.8","58.9","30.21","316","2.7","7","0.00","0.00"
"08:54:56","41.3","27.9","58.8","30.21","321","4.3","11.5","0.00","0.00"
"08:59:57","41.5","27.9","58.3","30.21","269","2.9","10","0.00","0.00"
"09:04:55","41.7","28.1","58.1","30.21","326","4.8","10.4","0.00","0.00"
"09:09:56","42.1","28.6","58.7","30.21","341","4.6","12","0.00","0.00"
"09:14:59","42.3","27.8","56.3","30.21","324","4.6","12","0.00","0.00"
"09:19:56","42.3","28.1","56.8","30.20","343","5.4","12","0.00","0.00"
"09:24:58","42.5","28","56.2","30.20","336","3.5","6.9","0.00","0.00"
"09:29:56","42.7","27.9","55.6","30.20","327","4.8","12","0.00","0.00"
"09:34:57","42.5","27.8","55.6","30.20","300","4","10.4","0.00","0.00"
"09:39:59","42.9","28.3","56.1","30.20","292","4.4","11.5","0.00","0.00"
"09:44:57","43.2","28.3","55.3","30.20","308","2.7","9","0.00","0.00"
"09:49:58","43.5","28.2","54.7","30.20","322","4.4","10.4","0.00","0.00"
"09:54:57","43.9","28.8","55.1","30.20","314","3.3","6","0.00","0.00"
"09:59:59","44.3","28.9","54.6","30.21","281","3.5","11","0.00","0.00"
"10:04:57","44.3","29","54.7","30.21","325","2.3","11.5","0.00","0.00"
"10:09:58","44.8","29.4","54.5","30.21","290","2.5","9.2","0.00","0.00"
"10:14:57","44.9","29.2","54","30.21","305","2.9","8.1","0.00","0.00"
"10:19:59","45.1","29.4","54","30.21","281","3.9","9.2","0.00","0.00"
"10:24:56","45.3","29.7","54","30.21","270","4.2","9.2","0.00","0.00"
"10:29:58","45.7","30","54","30.21","254","3.8","7","0.00","0.00"
"10:34:59","45.6","29.2","52.6","30.21","296","3","8.1","0.00","0.00"
"10:39:57","45.5","29.8","54","30.21","236","3.3","7","0.00","0.00"
"10:44:59","45.9","30.6","55.2","30.21","283","3.8","10.4","0.00","0.00"
"10:49:56","46.2","30.7","54.5","30.20","254","3.7","8.1","0.00","0.00"
"10:54:58","46.7","31","54.2","30.20","249","3.7","8.1","0.00","0.00"
"10:59:59","46.9","30.3","52.2","30.20","276","2.9","5","0.00","0.00"
"11:04:56","46.9","30.8","53.3","30.20","213","3.8","6","0.00","0.00"
"11:09:58","46.8","30.7","53.4","30.20","198","1.8","5.8","0.00","0.00"
"11:14:57","47.2","31.5","54.4","30.20","268","2.6","6","0.00","0.00"
"11:19:58","47.5","30.7","52","30.19","276","3.6","7","0.00","0.00"
"11:24:56","47.4","30.8","52.4","30.19","236","3.3","6","0.00","0.00"
"11:29:58","47.4","30.3","51.4","30.19","333","3.5","7","0.00","0.00"
"11:34:59","47.5","30.9","52.5","30.19","273","2.2","5.8","0.00","0.00"
"11:39:57","47.6","30.8","52","30.19","292","4.5","9.2","0.00","0.00"
"11:44:59","47.5","31.6","53.9","30.19","206","1.8","5","0.00","0.00"
"11:49:56","47.9","32.6","55.2","30.18","215","2.9","7","0.00","0.00"
"11:54:58","48.7","31.6","51.4","30.18","319","2.4","5.8","0.00","0.00"
"11:59:59","48.7","31.8","52.1","30.18","219","2.6","5","0.00","0.00"
"12:04:56","49","32.5","53","30.17","301","3.6","8","0.00","0.00"
"12:09:58","49","31","49.5","30.17","343","3.9","9.2","0.00","0.00"
"12:14:56","48.9","30.8","49.3","30.17","350","1.8","5.8","0.00","0.00"
"12:19:58","48.9","31.5","50.8","30.16","260","3.1","7","0.00","0.00"
"12:24:59","49.2","32.5","52.4","30.16","220","3.8","7","0.00","0.00"
"12:29:57","49.9","33.6","53.3","30.16","250","1.9","5","0.00","0.00"
"12:34:59","50","32.4","50.7","30.15","213","1.8","4","0.00","0.00"
"12:39:57","50.1","32.4","50.4","30.15","208","3","7","0.00","0.00"
"12:44:58","50.4","33.9","53.1","30.15","298","2","5","0.00","0.00"
"12:45:08","50.7","32.7","50","30.14","232","2.9","3.5","0.00","0.00"
"13:04:52","51.6","30.9","45","30.13","311","2.5","3.5","0.00","0.00"
"13:06:49","51.6","32.7","48.5","30.13","266","1.6","3.5","0.00","0.00"
"13:14:59","51.4","32.5","48.2","30.13","202","2.5","5","0.00","0.00"
"13:19:57","51.7","33.6","49.9","30.12","210","2.9","7","0.00","0.00"
"13:24:59","52.2","34.5","50.7","30.12","210","3.2","7","0.00","0.00"
"13:29:57","52.6","33.7","48.6","30.12","89","3","6.9","0.00","0.00"
"13:34:58","52.9","34.1","48.7","30.11","64","2","4","0.00","0.00"
"13:39:57","53.4","34","47.7","30.11","339","4","9.2","0.00","0.00"
"13:44:59","53.5","33.8","47.2","30.11","355","1.8","5.8","0.00","0.00"
"13:49:56","53.3","33.5","46.9","30.10","323","1.7","5","0.00","0.00"
"13:54:58","53.3","34.1","48.1","30.10","19","2.9","6","0.00","0.00"
"13:59:56","53.3","33.4","46.8","30.10","146","2","5","0.00","0.00"
"14:04:57","53.7","33.5","46.2","30.09","176","1.1","3.5","0.00","0.00"
"14:09:59","54.4","34.9","47.8","30.09","223","3.2","7","0.00","0.00"
"14:14:57","54.6","34.1","45.9","30.09","250","2.6","6.9","0.00","0.00"
"14:19:59","54.6","33.8","45.2","30.08","207","1.8","6","0.00","0.00"
"14:24:57","54.9","35.4","47.7","30.08","210","1.3","5.8","0.00","0.00"
"14:29:58","55.4","35","46.3","30.08","281","2.6","7","0.00","0.00"
"14:34:59","55.4","33.8","44","30.07","203","3.5","7","0.00","0.00"
"14:39:58","55.4","34.7","45.7","30.07","147","1.9","6","0.00","0.00"
"14:44:59","55.4","33.7","43.8","30.07","132","3.9","6","0.00","0.00"
"14:49:57","55.1","34.1","45.1","30.06","92","3.4","6","0.00","0.00"
"14:54:58","54.8","33.6","44.7","30.06","192","2.9","6","0.00","0.00"
"14:59:56","55.2","34.5","45.6","30.06","176","3.1","7","0.00","0.00"
"15:04:57","55.6","33.8","43.8","30.05","174","2.9","7","0.00","0.00"
"15:09:59","55.9","35.2","45.7","30.05","143","2.3","4","0.00","0.00"
"15:14:57","56","34","43.4","30.05","220","2.3","4","0.00","0.00"
"15:19:58","56.2","33.8","42.6","30.04","162","2.6","6","0.00","0.00"
"15:24:56","56.1","34","43.1","30.04","107","3","5.8","0.00","0.00"
"15:29:57","55.9","33.9","43.5","30.04","109","2","10","0.00","0.00"
"15:34:59","56","34.2","43.7","30.03","132","3.2","10.4","0.00","0.00"
"15:39:57","56.2","33.9","43","30.03","99","3.5","7","0.00","0.00"
"15:44:59","56.1","33.7","42.7","30.03","134","2","7","0.00","0.00"
"15:49:57","56.3","34.1","43.1","30.02","114","3.2","8","0.00","0.00"
"15:54:58","56.7","34.6","43.3","30.02","215","3.6","10.4","0.00","0.00"
"15:59:56","57.5","34.5","41.9","30.02","193","2.7","10.4","0.00","0.00"
"16:04:57","58","33.5","39.7","30.02","190","4.3","10.4","0.00","0.00"
"16:09:59","57.7","33.4","39.8","30.02","184","2.3","7","0.00","0.00"
"16:14:57","58.2","33.2","38.8","30.02","191","4.3","10.4","0.00","0.00"
"16:19:58","58.4","32.1","37","30.01","205","5.2","12","0.00","0.00"
"16:24:56","58.3","32.1","37","30.01","172","4.5","9.2","0.00","0.00"
"16:29:57","57.9","31.6","36.7","30.01","125","4.2","9.2","0.00","0.00"
"16:34:59","57.5","32.3","38.3","30.00","150","5.2","13","0.00","0.00"
"16:39:57","57.7","31.6","37.1","30.00","160","3.7","10.4","0.00","0.00"
"16:44:58","57.7","32.5","38.4","30.00","179","3.6","9.2","0.00","0.00"
"16:49:56","58.1","32.4","37.8","30.00","122","3.8","9.2","0.00","0.00"
"16:54:57","57.8","32.6","38.5","30.00","141","4.5","10.4","0.00","0.00"
"16:59:59","57.8","33.5","39.8","30.00","185","4.3","10.4","0.00","0.00"
"17:04:56","58.2","34.8","41.4","30.00","217","3","7","0.00","0.00"
"17:09:57","58.5","34","39.6","30.00","205","4.2","7","0.00","0.00"
"17:14:56","58.6","32.6","37.4","30.00","184","3.5","7","0.00","0.00"
"17:19:57","58.6","31.8","36.2","30.00","178","4.7","10","0.00","0.00"
"17:24:59","58.6","31.9","36.3","30.00","196","4","10.4","0.00","0.00"
"17:29:56","58.7","31.9","36.3","30.00","190","5","11.5","0.00","0.00"
"17:34:58","58.6","31.7","36","30.00","213","4.8","10.4","0.00","0.00"
"17:39:56","58.3","32","36.8","30.00","194","5.2","10.4","0.00","0.00"
"17:44:57","58.1","30.9","35.5","30.00","163","4.7","11","0.00","0.00"
"17:49:59","58","31.8","36.9","29.99","204","3.6","11.5","0.00","0.00"
"17:54:56","58","32.5","38","29.99","194","5.4","11.5","0.00","0.00"
"17:59:58","57.8","31.6","37","29.99","179","3.8","10.4","0.00","0.00"
"18:04:55","57.7","32.3","38.2","29.98","129","1.5","4","0.00","0.00"
"18:09:57","57.8","32.4","38.1","29.98","183","3.4","6","0.00","0.00"
"18:14:59","57.9","32.2","37.5","29.98","188","3.4","8.1","0.00","0.00"
"18:19:57","57.6","31.6","37.2","29.98","194","3.8","7","0.00","0.00"
"18:24:59","57","32.1","38.7","29.98","188","2.5","6.9","0.00","0.00"
"18:29:56","56.6","32.2","39.5","29.99","193","3.1","7","0.00","0.00"
"18:34:57","56.3","32","39.6","29.99","186","4","10.4","0.00","0.00"
"18:39:59","56.1","31.9","39.8","29.99","198","4","10","0.00","0.00"
"18:44:57","55.9","31.6","39.6","29.99","181","3.1","5.8","0.00","0.00"
"18:49:59","55.6","31.7","40.2","29.99","180","2.9","5","0.00","0.00"
"18:54:57","55.3","31.5","40.2","29.99","169","2.2","4.6","0.00","0.00"
"18:59:58","55.1","31.4","40.4","29.99","150","1.7","5","0.00","0.00"
"19:04:59","55","31.6","40.9","29.98","176","1.6","4","0.00","0.00"
"19:09:57","54.7","31.5","41.1","29.98","147","1.7","4","0.00","0.00"
"19:14:56","54.6","31.3","41","29.98","141","1.2","3.5","0.00","0.00"
"19:19:59","54.6","31.2","40.8","29.97","142","0.5","2.3","0.00","0.00"
"19:24:57","54.5","31.5","41.4","29.97","142","1","2.3","0.00","0.00"
"19:29:59","54.3","31.2","41.2","29.97","142","0.6","2.3","0.00","0.00"
"19:34:57","54.3","31.1","41","29.97","143","1.4","3.5","0.00","0.00"
"19:39:59","54.4","31","40.8","29.97","144","1.4","3.5","0.00","0.00"
"19:44:57","54.3","31","40.8","29.97","145","0.8","3.5","0.00","0.00"
"19:49:56","54.2","31.2","41.3","29.97","135","1.3","4","0.00","0.00"
"19:54:58","54.1","31.1","41.3","29.97","132","1.3","3.5","0.00","0.00"
"19:59:56","54","31.1","41.5","29.97","132","0.7","3.5","0.00","0.00"
"20:04:57","53.8","31.1","41.8","29.96","132","1","3.5","0.00","0.00"
"20:09:59","53.7","31","41.8","29.96","133","1.4","3.5","0.00","0.00"
"20:14:57","53.7","31.1","42","29.96","132","1.5","3.5","0.00","0.00"
"20:19:59","53.6","31.1","42.1","29.96","139","1.3","3.5","0.00","0.00"
"20:24:57","53.5","31.6","43.2","29.96","142","0.9","2.3","0.00","0.00"
"20:29:59","53.3","31.7","43.7","29.96","142","1.1","3.5","0.00","0.00"
"20:34:58","53.1","31.3","43.1","29.95","142","1.1","3.5","0.00","0.00"
"20:39:56","53.1","31.2","43","29.95","142","0.8","3.5","0.00","0.00"
"20:44:58","53","31.1","43","29.96","142","0.5","2.3","0.00","0.00"
"20:49:56","53","31.1","43","29.96","142","0.1","1.2","0.00","0.00"
"20:54:58","52.9","31.2","43.2","29.96","142","0.9","3.5","0.00","0.00"
"20:59:56","52.7","31.3","43.8","29.96","139","1.6","3.5","0.00","0.00"
"21:04:53","52.6","31.3","44","29.96","138","1.2","3.5","0.00","0.00"
"21:09:59","52.4","31.3","44.3","29.96","136","1.5","4","0.00","0.00"
"21:14:58","52.3","31.6","45","29.96","133","2","5","0.00","0.00"
"21:19:56","52.2","31.7","45.5","29.95","133","1.2","3.5","0.00","0.00"
"21:24:58","52","31.8","46","29.95","172","1.8","5","0.00","0.00"
"21:29:56","51.9","31.7","46","29.96","175","1.7","5","0.00","0.00"
"21:34:58","51.8","32","46.7","29.96","168","1.2","3.5","0.00","0.00"
"21:39:57","51.7","31.9","46.7","29.96","135","1.9","4","0.00","0.00"
"21:44:59","51.6","32","47","29.96","150","0.9","3.5","0.00","0.00"
"21:49:57","51.4","31.8","47","29.95","121","2.3","5","0.00","0.00"
"21:54:59","51.3","31.7","47","29.95","120","1.2","4","0.00","0.00"
"21:59:56","51.2","32","47.8","29.95","128","1.4","4","0.00","0.00"
"22:04:58","50.9","32.2","48.5","29.95","142","1.3","6","0.00","0.00"
"22:09:56","50.7","32.2","49","29.95","149","1.2","4","0.00","0.00"
"22:14:59","50.4","32.4","49.8","29.95","137","1.4","4","0.00","0.00"
"22:19:57","50.3","32.4","50","29.95","147","1","4","0.00","0.00"
"22:24:59","50.2","32.4","50.1","29.95","148","2","6","0.00","0.00"
"22:29:57","50.2","32.7","50.8","29.95","156","2.6","5","0.00","0.00"
"22:34:59","50.3","32.9","51.2","29.94","141","2.3","4","0.00","0.00"
"22:39:57","50.2","33.3","52.2","29.94","124","1.8","4","0.00","0.00"
"22:44:59","50.1","33.4","52.7","29.94","130","2","4","0.00","0.00"
"22:49:57","49.9","33.4","53","29.94","120","2","4","0.00","0.00"
"22:54:59","49.8","34","54.5","29.94","105","1.4","3.5","0.00","0.00"
"22:59:57","49.6","34.1","55","29.94","113","1.6","4","0.00","0.00"
"23:04:50","49.6","34.2","55.4","29.94","179","1.8","5","0.00","0.00"
"23:09:57","49.4","34.3","56","29.94","164","1.4","4","0.00","0.00"
"23:14:56","49.3","34.8","57.3","29.94","156","1.5","4","0.00","0.00"
"23:19:58","49","34.8","57.9","29.93","155","1.8","4","0.00","0.00"
"23:24:59","48.7","35","59","29.93","163","2.5","5","0.00","0.00"
"23:29:57","48.5","35.2","59.8","29.93","165","1.6","5","0.00","0.00"
"23:34:59","48.3","35.5","61","29.92","127","1.5","4","0.00","0.00"
"23:39:58","48","35.5","61.8","29.92","143","2.1","4","0.00","0.00"
"23:44:56","47.8","35.7","62.6","29.92","154","2.2","5","0.00","0.00"
"23:49:58","47.7","35.9","63.4","29.92","122","2.1","5","0.00","0.00"
"23:54:56","47.6","36","64","29.92","138","2","5","0.00","0.00"
"23:59:58","47.5","36.2","64.8","29.92","109","3","6","0.00","0.00"
